Погода в Старых Турдаках

Россия / Пензенская область     53°01′34″N   45°41′41″E
темп.,
°C
ветер,
м/с
пор.,
м/с
влажн.,
%
обл.,
%
осадки,
мм/ч
давл.,
гПа
погр.,
м
15 апреля, чт
чт1500:00+9вюв37783 0.0 1020101
03:00+8вюв34784 0.0 102049
06:00+8вюв347817 0.0 102061
09:00+15в345367 0.0 1018295
12:00+19вюв443842 0.0 1017997
15:00+20юв453421 0.0 10171446
18:00+17вюв3451100 0.0 101655
21:00+13вюв3361100 0.0 101743
16 апреля, пт
пт1600:00+11вюв2264100 0.0 101718
03:00+10в3363100 0.0 101725
06:00+9в3561100 0.0 101785
09:00+15в4749100 0.0 1018345
12:00+18в563993 0.0 10181027
15:00+19в4432100 0.0 10181948
18:00+16в3549100 0.0 101881
21:00+11всв41175100 0.0 1019223
17 апреля, сб
сб1700:00+9всв3108928 0.0 1020184
03:00+8всв499272 0.0 1020155
06:00+7всв4109246 0.0 1020202
09:00+13всв686697 0.0 1020514
12:00+17всв794814 0.0 10191235
15:00+17в764445 0.0 10192294
18:00+14всв7116014 0.1 1019517
21:00+9всв613693 0.1 1020418
18 апреля, вс
вс1800:00+7всв614630 0.0 1020398
03:00+5всв614620 0.0 1021413
06:00+5св613665 0.0 1022449
09:00+9всв79460 0.0 1022901
12:00+12св67390 0.0 10221469
15:00+13св78350 0.0 10231757
18:00+11св58485 0.0 1024429
21:00+6св34655 0.0 102673
19 апреля, пн
пн1900:00+4св511765 0.0 1029448
03:00+2св410775 0.0 1031352
06:00+1всв410724 0.0 1033556
09:00+5всв684049 0.0 10331170
12:00+7в7836100 0.0 10331451
15:00+8в6733100 0.0 10331580
18:00+6в58415 0.0 1034572
21:00+2в49555 0.0 1035181